Location: El Azufral
(10.3513°N, 67.1528°W)
Time: 18:00:45
(UTC+00:00)

NOAA 6 - Pass Details

Date: 13 June 2024
Orbit: 769 x 784 km, 98.6° (Epoch: 24 July)

Event Time Altitude Azimuth Distance (km) Brightness Sun altitude
Rises 23:17:54 0° 170° (S) 3,243 6.9 -6.9°
Reaches altitude 10° 23:20:12 10° 171° (S) 2,318 6.2 -7.4°
Maximum altitude 23:25:18 79° 257° (WSW) 795 4.2 -8.6°
Drops below altitude 10° 23:30:27 10° 344° (NNW) 2,327 7.1 -9.7°
Sets 23:32:46 0° 346° (NNW) 3,257 7.9 -10.2°
